Location: Batang Balui
(2.7000°N, 113.7833°E)
Time: 22:46:18
(UTC+00:00)

Cosmos 858 Rocket - Pass Details

Date: 03 December 2021
Orbit: 756 x 774 km, 74.1° (Epoch: 27 January)

Event Time Altitude Azimuth Distance (km) Brightness Sun altitude
Rises 11:12:05 0° 349° (N) 3,229 7.6 -14.3°
Reaches altitude 10° 11:14:28 10° 350° (N) 2,302 6.8 -14.8°
Maximum altitude 11:19:41 82° 78° (ENE) 776 4.4 -16.0°
Drops below altitude 10° 11:24:55 10° 165° (SSE) 2,297 7.1 -17.2°
Sets 11:27:17 0° 166° (SSE) 3,222 7.8 -17.8°
